DJ8HS-13 Weather Reports


Display with metric or nautical units.
time (UTC)temp
F
wind
direction
speed
MPH
gust
MPH
rain 1hr
in
rain 24hr
in
rain mn
in
humidity
%
barometer
mb
20260503222437 62 319 0.0 0.0 0.00 0.00 0.00 62
20260503221937 62 319 0.0 0.0 0.00 0.00 0.00 62
20260503221437 62 319 0.0 0.0 0.00 0.00 0.00 62
20260503220937 62 319 0.0 0.0 0.00 0.00 0.00 61
20260503220437 62 319 0.0 0.0 0.00 0.00 0.00 61
20260503215937 63 319 0.0 0.0 0.00 0.00 0.00 61
20260503215437 63 319 0.0 0.0 0.00 0.00 0.00 60
20260503214937 63 319 0.0 0.0 0.00 0.00 0.00 59
20260503214437 63 319 0.0 0.0 0.00 0.00 0.00 59
20260503213937 63 319 0.0 0.0 0.00 0.00 0.00 58
20260503213437 63 319 0.0 0.0 0.00 0.00 0.00 57
20260503212937 63 319 0.0 0.0 0.00 0.00 0.00 57
20260503212437 63 319 0.0 0.0 0.00 0.00 0.00 57
20260503211937 64 319 0.0 0.0 0.00 0.00 0.00 57
20260503211437 64 319 0.0 0.0 0.00 0.00 0.00 57
20260503210937 64 319 0.0 0.0 0.00 0.00 0.00 56
20260503210437 64 319 0.0 0.0 0.00 0.00 0.00 56
20260503205937 64 319 0.0 0.0 0.00 0.00 0.00 55
20260503205437 64 319 0.0 0.0 0.00 0.00 0.00 55
20260503204937 65 319 0.0 0.0 0.00 0.00 0.00 54
20260503204437 65 319 0.0 0.0 0.00 0.00 0.00 53
20260503203937 65 319 0.0 0.0 0.00 0.00 0.00 52
20260503203437 65 319 0.0 0.0 0.00 0.00 0.00 51
20260503202937 65 319 0.0 0.0 0.00 0.00 0.00 50
20260503202437 65 319 0.0 1.0 0.00 0.00 0.00 49
20260503201937 65 279 0.0 1.0 0.00 0.00 0.00 49
20260503201437 66 244 1.0 2.0 0.00 0.00 0.00 49
20260503200937 66 171 0.0 4.0 0.00 0.00 0.00 49
20260503200437 66 1 0.0 6.0 0.00 0.00 0.00 48
20260503195937 66 262 0.0 4.0 0.00 0.00 0.00 48
20260503195437 66 184 1.0 6.0 0.00 0.00 0.00 47
20260503194937 67 217 1.0 7.0 0.00 0.00 0.00 45
20260503194437 67 147 1.0 5.0 0.00 0.00 0.00 42
20260503193937 68 146 4.0 7.0 0.00 0.00 0.00 41
20260503193437 68 199 0.0 6.0 0.00 0.00 0.00 40
20260503192937 68 270 3.0 8.0 0.00 0.00 0.00 38
20260503192437 68 250 3.0 6.0 0.00 0.00 0.00 38
20260503191937 68 292 0.0 7.0 0.00 0.00 0.00 37
20260503191437 68 284 1.0 10.0 0.00 0.00 0.00 36
20260503190937 69 282 7.0 12.0 0.00 0.00 0.00 36
20260503190437 69 241 1.0 8.0 0.00 0.00 0.00 37
20260503185937 70 4 1.0 5.0 0.00 0.00 0.00 38
20260503185437 70 281 0.0 5.0 0.00 0.00 0.00 39
20260503184937 70 270 1.0 5.0 0.00 0.00 0.00 38
20260503184437 70 219 0.0 9.0 0.00 0.00 0.00 38
20260503183937 70 248 0.0 7.0 0.00 0.00 0.00 37
20260503183437 71 70 1.0 9.0 0.00 0.00 0.00 37
20260503182937 71 336 0.0 8.0 0.00 0.00 0.00 36
20260503182437 71 227 3.0 3.0 0.00 0.00 0.00 36
20260503181937 71 164 0.0 3.0 0.00 0.00 0.00 35
20260503181437 72 234 0.0 6.0 0.00 0.00 0.00 34
20260503180937 72 274 4.0 6.0 0.00 0.00 0.00 34
20260503180437 72 285 0.0 5.0 0.00 0.00 0.00 33
20260503175937 72 344 0.0 6.0 0.00 0.00 0.00 33
20260503175437 73 226 0.0 5.0 0.00 0.00 0.00 33
20260503174937 73 246 5.0 9.0 0.00 0.00 0.00 32
20260503174437 73 220 1.0 5.0 0.00 0.00 0.00 32
20260503173937 73 225 0.0 5.0 0.00 0.00 0.00 31
20260503173437 74 285 0.0 3.0 0.00 0.00 0.00 31
20260503172937 74 278 1.0 6.0 0.00 0.00 0.00 30
20260503172437 74 260 0.0 3.0 0.00 0.00 0.00 30
20260503171937 74 341 0.0 3.0 0.00 0.00 0.00 29
20260503171437 74 233 1.0 5.0 0.00 0.00 0.00 29
20260503170937 75 236 0.0 3.0 0.00 0.00 0.00 29
20260503170437 75 322 0.0 5.0 0.00 0.00 0.00 28
20260503150938 77 268 1.0 8.0 0.00 0.00 0.00 26
20260503150438 77 240 0.0 6.0 0.00 0.00 0.00 26
20260503130938 78 201 0.0 3.0 0.00 0.00 0.00 31
20260503130438 77 160 0.0 5.0 0.00 0.00 0.00 30
20260503110438 81 154 1.0 8.0 0.00 0.00 0.00 22
20260503090438 72 181 0.0 2.0 0.00 0.00 0.00 43
20260503081438 66 182 0.0 2.0 0.00 0.00 0.00 56
20260503080938 66 101 0.0 1.0 0.00 0.00 0.00 57
20260503080438 66 133 0.0 1.0 0.00 0.00 0.00 58
20260503072938 62 123 0.0 0.0 0.00 0.00 0.00 68
20260503072438 61 123 0.0 0.0 0.00 0.00 0.00 68
20260503071938 61 123 0.0 0.0 0.00 0.00 0.00 68
20260503071438 60 123 0.0 0.0 0.00 0.00 0.00 69
20260503070938 60 123 0.0 2.0 0.00 0.00 0.00 69
20260503070438 60 203 0.0 0.0 0.00 0.00 0.00 69
20260503054939 57 77 0.0 1.0 0.00 0.00 0.00 78
20260503054439 57 324 0.0 0.0 0.00 0.00 0.00 78
20260503053939 56 324 0.0 0.0 0.00 0.00 0.00 78
20260503053439 56 324 0.0 0.0 0.00 0.00 0.00 78
20260503052939 56 324 0.0 0.0 0.00 0.00 0.00 78
20260503052439 55 324 0.0 1.0 0.00 0.00 0.00 78
20260503051939 55 164 0.0 0.0 0.00 0.00 0.00 78
20260503051439 55 164 0.0 0.0 0.00 0.00 0.00 78
20260503050939 55 164 0.0 0.0 0.00 0.00 0.00 78
20260503050439 54 164 0.0 0.0 0.00 0.00 0.00 78
20260503045939 54 164 0.0 0.0 0.00 0.00 0.00 78
20260503045439 54 164 0.0 0.0 0.00 0.00 0.00 78
20260503044939 54 164 0.0 0.0 0.00 0.00 0.00 78
20260503044439 54 164 0.0 0.0 0.00 0.00 0.00 78
20260503043939 54 164 0.0 0.0 0.00 0.00 0.00 79
20260503043439 54 164 0.0 0.0 0.00 0.00 0.00 78
20260503042939 53 164 0.0 0.0 0.00 0.00 0.00 78
20260503042439 53 164 0.0 0.0 0.00 0.00 0.00 78
20260503041939 54 164 0.0 0.0 0.00 0.00 0.00 78
20260503041439 53 164 0.0 0.0 0.00 0.00 0.00 78
20260503040939 53 164 0.0 0.0 0.00 0.00 0.00 78
20260503040439 53 164 0.0 0.0 0.00 0.00 0.00 78
20260503035939 53 164 0.0 0.0 0.00 0.00 0.00 77
20260503035439 53 164 0.0 0.0 0.00 0.00 0.00 77
20260503034939 53 164 0.0 0.0 0.00 0.00 0.00 77
20260503034439 53 164 0.0 0.0 0.00 0.00 0.00 77
20260503033939 53 164 0.0 0.0 0.00 0.00 0.00 77
20260503033439 53 164 0.0 0.0 0.00 0.00 0.00 76
20260503032939 54 164 0.0 0.0 0.00 0.00 0.00 76
20260503032439 54 164 0.0 0.0 0.00 0.00 0.00 76
20260503031939 54 164 0.0 0.0 0.00 0.00 0.00 77
20260503031439 54 164 0.0 0.0 0.00 0.00 0.00 76
20260503030939 54 164 0.0 0.0 0.00 0.00 0.00 76
20260503030439 54 164 0.0 0.0 0.00 0.00 0.00 75
20260503025939 54 164 0.0 0.0 0.00 0.00 0.00 75
20260503025439 54 164 0.0 0.0 0.00 0.00 0.00 75
20260503024939 54 164 0.0 0.0 0.00 0.00 0.00 75
20260503024439 55 164 0.0 0.0 0.00 0.00 0.00 75
20260503023939 55 164 0.0 0.0 0.00 0.00 0.00 75
20260503023439 55 164 0.0 0.0 0.00 0.00 0.00 75
20260503022939 55 164 0.0 0.0 0.00 0.00 0.00 75
20260503022439 55 164 0.0 0.0 0.00 0.00 0.00 75
20260503021939 55 164 0.0 0.0 0.00 0.00 0.00 75
20260503021439 55 164 0.0 0.0 0.00 0.00 0.00 74
20260503020939 56 164 0.0 0.0 0.00 0.00 0.00 74
20260503020439 56 164 0.0 0.0 0.00 0.00 0.00 74
20260503015939 56 164 0.0 0.0 0.00 0.00 0.00 73
20260503015439 56 164 0.0 0.0 0.00 0.00 0.00 74
20260503014939 56 164 0.0 0.0 0.00 0.00 0.00 74
20260503014439 56 164 0.0 0.0 0.00 0.00 0.00 74
20260503013939 56 164 0.0 0.0 0.00 0.00 0.00 74
20260503013439 56 164 0.0 0.0 0.00 0.00 0.00 74
20260503012939 56 164 0.0 0.0 0.00 0.00 0.00 74
20260503012439 56 164 0.0 0.0 0.00 0.00 0.00 74
20260503011939 56 164 0.0 0.0 0.00 0.00 0.00 73
20260503011439 57 164 0.0 0.0 0.00 0.00 0.00 73
20260503010939 57 164 0.0 0.0 0.00 0.00 0.00 73
20260503010439 57 164 0.0 0.0 0.00 0.00 0.00 73
20260503005939 57 164 0.0 0.0 0.00 0.00 0.00 72
20260503005439 57 164 0.0 0.0 0.00 0.00 0.00 72
20260503004939 58 164 0.0 0.0 0.00 0.00 0.00 71
20260503004439 58 164 0.0 0.0 0.00 0.00 0.00 71
20260503003939 58 164 0.0 0.0 0.00 0.00 0.00 71
20260503003439 58 164 0.0 0.0 0.00 0.00 0.00 71
20260503002939 58 164 0.0 0.0 0.00 0.00 0.00 71
20260503002439 58 164 0.0 0.0 0.00 0.00 0.00 70
20260503001939 58 164 0.0 0.0 0.00 0.00 0.00 70
20260503001439 58 164 0.0 0.0 0.00 0.00 0.00 70
20260503000939 58 164 0.0 0.0 0.00 0.00 0.00 70
20260503000439 59 164 0.0 0.0 0.00 0.00 0.00 70
20260502235939 59 164 0.0 0.0 0.00 0.00 0.00 70
20260502235439 59 164 0.0 0.0 0.00 0.00 0.00 70
20260502234939 59 164 0.0 0.0 0.00 0.00 0.00 70
20260502234439 59 164 0.0 0.0 0.00 0.00 0.00 70
20260502233939 59 164 0.0 0.0 0.00 0.00 0.00 70
20260502233439 59 164 0.0 0.0 0.00 0.00 0.00 69
20260502232939 59 164 0.0 0.0 0.00 0.00 0.00 69
20260502232439 60 164 0.0 0.0 0.00 0.00 0.00 68
20260502231939 60 164 0.0 0.0 0.00 0.00 0.00 68
20260502231439 60 164 0.0 0.0 0.00 0.00 0.00 68
20260502230939 60 164 0.0 0.0 0.00 0.00 0.00 67
20260502230439 60 164 0.0 0.0 0.00 0.00 0.00 66
20260502225939 60 164 0.0 0.0 0.00 0.00 0.00 66
20260502225439 61 164 0.0 0.0 0.00 0.00 0.00 66
20260502224939 61 164 0.0 0.0 0.00 0.00 0.00 65
20260502224439 61 164 0.0 0.0 0.00 0.00 0.00 64
20260502223939 61 164 0.0 0.0 0.00 0.00 0.00 63
20260502223439 61 164 0.0 0.0 0.00 0.00 0.00 63
20260502222939 61 164 0.0 0.0 0.00 0.00 0.00 63